www.pogodaiklimat.ru

Погода и климат >> Архив погоды >> Мексика >> Manzanillo


ПОГОДА в Manzanillo

  • Прогноз погоды в Manzanillo
  • Монитор погоды в Manzanillo
  • Климат города

АРХИВ ПОГОДЫ в Manzanillo

Время (UTC), дата Ветер
(напр.,м/с)
 
Видим.   Явления Облачность Т
(С)
Тd
(С)
f
(%)
Тe
(С)
Тes
(С)
Комфортность P
(гПа)
Po
(гПа)
Тmin
(С)
Tmax
(С)
R
(мм)
S
(см)
03 16.03 З 3 6000 м мгла {туман} ясно +25.6 +22.0 81 +33 +33 очень
душно
1014.3 1013.9
06 16.03 В 1 6000 м мгла {туман} ясно +23.8 +20.1 80 +29 +29 душно 1014.9 1014.5 +20.8 +31.5
09 16.03 СЗ 2 6000 м мгла {туман} ясно +23.4 +20.0 81 +30 +30 очень
душно
1014.8 1014.4
12 16.03 С 2 6000 м мгла {туман} ясно +21.4 +19.4 88 +26 +26 душно 1014.5 1014.1 +21.4 +31.5
15 16.03 штиль 0 6000 м мгла {туман} ясно +24.4 +16.9 63 +28 +35 душно 1016.0 1015.6
18 16.03 Ю 3 6000 м мгла {туман} 1/1 600 м
[Cu med, cong]
+29.6 +20.6 58 +36 +50 очень
душно
1016.9 1016.5 +19.6 +30.7
21 16.03 З 2 6000 м мгла {туман} 1/1 600 м
[Cu med, cong]
+29.6 +20.3 57 +36 +49 очень
душно
1015.0 1014.6
00 17.03 З 2 6000 м мгла {туман} 1/1 300 м
[Cu med, cong]
+27.6 +22.1 72 +36 +37 очень
душно
1013.2 1012.8 +19.6 +31.7
03 17.03 З 2 6000 м мгла {туман} ясно +25.0 +22.7 87 +33 +33 очень
душно
1015.7 1015.3
06 17.03 С 1 6000 м мгла {туман} ясно +23.9 +22.5 92 +31 +31 очень
душно
1016.2 1015.8 +19.6 +31.7
09 17.03 штиль 0 6000 м мгла {туман} ясно +22.0 +20.4 91 +28 +28 душно 1016.0 1015.6
12 17.03 штиль 0 6000 м мгла {туман} ясно +20.4 +17.9 86 +24 +24 комфорт 1016.0 1015.6 +20.6 +31.7
15 17.03 штиль 0 6000 м мгла {туман} ясно +22.4 +17.3 73 +27 +34 душно 1015.9 1015.5
18 17.03 ЮЗ 1 6000 м мгла {туман} 1/0
[Ci fib]
+29.4 +23.1 69 +39 +61 опасность
солнечного
удара
1015.3 1014.9 +19.6 +31.7
21 17.03 ЮЗ 3 6000 м мгла {туман} 6/1 600 м
[Cu med, cong Ci fib]
+30.0 +23.2 67 +40 +50 очень
душно
1013.9 1013.5
00 18.03 ЮЗ 3 6000 м мгла {туман} 5/1 300 м
[Cu med, cong Ci]
+27.6 +22.1 72 +36 +37 очень
душно
1013.0 1012.6 +20.4 +32.0
03 18.03 З 3 6000 м мгла {туман} ясно +25.3 +23.0 87 +34 +34 очень
душно
1014.4 1014.0
06 18.03 штиль 0 6000 м мгла {туман} ясно +24.1 +22.7 92 +32 +32 очень
душно
1015.0 1014.7 +20.4 +32.0
09 18.03 С 2 6000 м мгла {туман} ясно +23.1 +21.3 90 +31 +31 очень
душно
1016.2 1015.8
12 18.03 С 2 6000 м мгла {туман} 3/3 600 м
[Sc]
+22.9 +19.7 82 +29 +29 очень
душно
1015.2 1014.8 +22.6 +31.0
15 18.03 ЮВ 3 6000 м мгла {туман} 3/3 600 м
[Sc]
+24.0 +19.4 75 +29 +32 душно 1016.9 1016.5
18 18.03 Ю 5 6000 м мгла {туман} ясно +29.8 +21.8 62 +38 +48 очень
душно
1016.6 1016.2 +22.6 +31.8
21 18.03 З 3 6000 м мгла {туман} 3/3 600 м
[Sc diur, vesp]
+30.2 +23.4 67 +41 +49 опасность
перегрева
1015.5 1015.1
00 19.03 Ю 2 6000 м мгла {туман} 1/1 300 м
[Cu med, cong]
+28.4 +21.5 66 +36 +37 очень
душно
1014.0 1013.6 +22.6 +31.8
03 19.03 штиль 0 6000 м мгла {туман} ясно +25.2 +22.4 84 +33 +33 очень
душно
1014.3 1013.9
06 19.03 штиль 0 6000 м мгла {туман} ясно +25.2 +22.9 87 +33 +33 очень
душно
1015.8 1015.4 +22.6 +31.8
09 19.03 С 2 6000 м мгла {туман} ясно +23.6 +21.6 89 +30 +30 очень
душно
1015.7 1015.3
12 19.03 штиль 0 6000 м мгла {туман} ясно +22.9 +21.5 92 +31 +31 очень
душно
1013.6 1013.2 +22.9 +31.8
15 19.03 штиль 0 6000 м мгла {туман} 3/3 600 м
[Sc]
+23.4 +21.3 88 +31 +36 очень
душно
1016.3 1015.9
18 19.03 Ю 3 6000 м мгла {туман} ясно +30.2 +23.9 69 +42 +57 опасность
перегрева
1017.2 1016.8 +22.6 +31.8
21 19.03 Ю 2 6000 м мгла {туман} ясно +31.1 +24.6 68 +44 +59 опасность
перегрева
1015.1 1014.7
00 20.03 ЮЗ 2 6000 м мгла {туман} ясно +28.4 +23.8 76 +39 +40 очень
душно
1013.9 1013.5 +22.6 +32.2
03 20.03 штиль 0 6000 м мгла {туман} ясно +26.1 +23.9 88 +36 +36 очень
душно
1014.7 1014.3
06 20.03 штиль 0 6000 м мгла {туман} ясно +25.0 +23.8 93 +34 +34 очень
душно
1015.8 1015.4
12 20.03 штиль 0 6000 м мгла {туман} 3/3 600 м
[Sc diur, vesp]
+23.4 +21.4 89 +32 +32 очень
душно
1015.6 1015.2 +23.3 +32.2
15 20.03 штиль 0 6000 м мгла {туман} 4/4 600 м
[Sc diur, vesp]
+25.5 +21.4 78 +32 +37 очень
душно
1016.9 1016.5
18 20.03 Ю 3 6000 м мгла {туман} 1/1 600 м
[Cu hum]
+30.0 +23.2 67 +40 +54 опасность
солнечного
удара
1016.3 1015.9 +23.4 +31.0
21 20.03 Ю 3 6000 м мгла {туман} 3/0
[Ci fib]
+30.1 +23.3 67 +41 +52 опасность
перегрева
1014.1 1013.7
00 21.03 Ю 2 6000 м мгла {туман} ясно +29.0 +23.9 74 +40 +41 очень
душно
1013.5 1013.1 +23.3 +31.3
03 21.03 ЮЗ 2 6000 м мгла {туман} 1/1 600 м
[Sc]
+26.6 +23.8 85 +37 +37 очень
душно
1016.0 1015.6
06 21.03 штиль 0 6000 м мгла {туман} 4/4 300 м
[Sc]
+25.6 +23.7 89 +35 +35 очень
душно
1016.4 1016.0 +23.3 +31.3
09 21.03 С 2 6000 м мгла {туман} ясно +23.6 +21.6 89 +30 +30 очень
душно
1015.7 1015.3
12 21.03 С 2 6000 м мгла {туман} ясно +23.2 +19.1 78 +30 +30 очень
душно
1014.4 1014.0 +23.2 +31.3
15 21.03 штиль 0 6000 м мгла {туман} ясно +25.4 +20.1 72 +31 +38 очень
душно
1016.0 1015.7
18 21.03 ЮЗ 2 6000 м мгла {туман} ясно +30.0 +22.9 66 +40 +59 опасность
солнечного
удара
1016.3 1015.9 +23.1 +31.1
21 21.03 ЮЗ 3 6000 м мгла {туман} 6/0
[Ci]
+30.1 +24.1 70 +42 +53 опасность
перегрева
1012.4 1012.0
00 22.03 ЮЗ 2 6000 м мгла {туман} 4/4 300 м
[Sc diur, vesp]
+28.1 +23.3 75 +38 +39 очень
душно
1011.7 1011.3 +23.1 +32.6
03 22.03 штиль 0 6000 м мгла {туман} 1/1 600 м
[Sc]
+26.2 +23.5 85 +36 +36 очень
душно
1013.8 1013.4
06 22.03 З 2 6000 м мгла {туман} 9/9 300 м
[Sc]
+26.2 +23.6 86 +36 +36 очень
душно
1015.1 1014.7 +23.1 +32.6
09 22.03 штиль 0 6000 м мгла {туман} ясно +25.3 +23.4 89 +34 +34 очень
душно
1012.9 1012.5
12 22.03 штиль 0 6000 м мгла {туман} ясно +24.2 +22.7 91 +32 +32 очень
душно
1013.3 1012.9 +24.2 +32.6
15 22.03 штиль 0 6000 м мгла {туман} ясно +24.2 +22.7 91 +32 +39 очень
душно
1013.3 1012.9 +24.2 +32.6
18 22.03 ЮЗ 3 6000 м мгла {туман} ясно +30.2 +23.1 66 +40 +56 опасность
солнечного
удара
1014.4 1014.0 +24.3 +30.8
21 22.03 ЮЗ 4 6000 м мгла {туман} ясно +28.6 +22.0 68 +37 +47 очень
душно
1012.2 1011.8

 

Местоположение метеостанции Manzanillo (Мексика): широта 19.05 долгота -104.30 высота над уровнем моря 3 м.

В архиве по умолчанию представлена погода в Manzanillo за последнюю неделю. Архивные данные за месяц целиком и за предыдущие месяцы, начиная с января 2011 года, Вы можете получить, выбрав интересующий диапазон дат из раскрывающегося списка и нажав кнопку "Ввод!".

Внимание! Время в таблицах - всемирное. Для получения местного времени необходимо прибавить поправку, которая в Manzanillo равна -6 ч.

Смотрите также архив погоды в соседних городах и на ближайших метеорологических станциях:

Погода в Colima (Мексика) (88 км)
Погода в Ciudad Guzman (Мексика) (120 км)
Погода в Guadalajara (Мексика) (208 км)
Погода в Zamora (Мексика) (234 км)
Погода в Tepic (Мексика) (280 км)
Погода в Morelia (Мексика) (343 км)
Погода в Colotlan (Мексика) (356 км)
Погода в Lagos De Moreno (Мексика) (357 км)
Погода в Aguascalientes (Мексика) (377 км)
Погода в Huejucar (Мексика) (383 км)

Пояснения к столбцам:

Ветер - указаны скорость ветра в м/с - средняя за 10 мин, порывы в срок и между сроками (в фигурных скобках) и направление, откуда дует ветер: С - северный, СВ - северо-восточный, В - восточный, ЮВ - юго-восточный, Ю - южный, ЮЗ - юго-западный, З - западный, СЗ - северо-западный.
Видимость - горизонтальная дальность видимости в метрах или километрах. При видимости от 1 до 10 км при отсутствии осадков обычно наблюдается дымка, при ухудшении видимости до 1 км и менее - туман. В сухую погоду видимость может ухудшаться дымом, пылью или мглою.
Явления - указаны атмосферные явления, наблюдавшиеся в срок или в последний час перед сроком; фигурными скобками обозначены явления, наблюдавшиеся между сроками (за 1-3 часа до срока); квадратными скобками обозначены град или гололедные отложения с указанием их диаметра в мм.
Облачность - указаны через наклонную черту общая и нижняя облачность в баллах и высота нижней границы облаков в метрах; квадратными скобками обозначены формы облаков: Ci - перистые, Cs - перисто-слоистые, Cc - перисто-кучевые, Ac - высококучевые, As - высокослоистые, Sc - слоисто-кучевые, Ns - слоисто-дождевые, Cu - кучевые, Cb - кучево-дождевые. Подробнее классификацию облаков см. в Атласе облаков (PDF).
T - Температура воздуха - температура, измеренная на высоте 2 м над землей.
Td - Температура точки росы - температура, при понижении до которой содержащийся в воздухе водяной пар достигнет насыщения.
f - Относительная влажность воздуха - влажноcть воздуха, измеренная на высоте 2 м над землей.
Te - Эффективная температура - температура, которую ощущает одетый по сезону человек в тени. Характеристика душности погоды. При расчете учитывается влияние влажности воздуха и скорости ветра на теплоощущения человека.
Tes - Эффективная температура на солнце - температура, которую ощущает человек, с поправкой на солнечный нагрев. Характеристика знойности погоды. Зависит от высоты солнца над горизонтом, облачности и скорости ветра. Ночью, в пасмурную погоду, а также при ветре 12 м/с и более поправка равна нулю.
P - Атмосферное давление - приведенное к уровню моря атмосферное давление.
Po - Атмосферное давление - измеренное на уровне метеостанции атмосферное давление.
Tmin - Минимальная температура - минимум температуры воздуха на высоте 2 м над землей.
Tmax - Максимальная температура - максимум температуры воздуха на высоте 2 м над землей.
R - Количество осадков - Количество выпавших осадков, мм. При наведении курсора мыши на число - период времени, за который выпало указанное количество осадков.
S - Снежный покров - Высота снежного покрова, см. При наведении курсора мыши на число - состояние снежного покрова и степень покрытия местности в баллах.